Location: Long Barn
(38.0930°N, 120.1344°W)
Time: 00:48:48
(UTC+00:00)

BlueWalker 3 - Pass Details

Date: 23 January 2026
Orbit: 450 x 461 km, 53.2° (Epoch: 11 February)

Event Time Altitude Azimuth Distance (km) Brightness Sun altitude
Rises 02:06:46 0° 237° (WSW) 2,446 7.1 -10.8°
Reaches altitude 10° 02:08:55 10° 242° (WSW) 1,576 5.9 -11.2°
Maximum altitude 02:12:24 54° 321° (NW) 552 2.3 -11.9°
Enters shadow 02:15:13 15° 37° (NE) 1,320 3.6 -12.4°
